{"data":{"norad_id":62898,"epoch":"2026-05-25T00:23:02.781024Z","epoch_age_seconds":76731,"freshness":"FRESH","line1":"1 62898U 25024V   26145.01600441  .00012732  00000+0  47128-3 0  9999","line2":"2 62898  42.9924 253.9214 0001199 293.9053  66.1672 15.27586592 73943","mean_motion":15.27586592,"eccentricity":0.0001199,"inclination_deg":42.9924,"raan_deg":253.9214,"arg_perigee_deg":293.9053,"mean_anomaly_deg":66.1672,"bstar":0.00047128,"rev_number":7394,"period_min":94.266341924007,"perigee_km":482.20670344494,"apogee_km":483.85201113742,"semimajor_km":6861.1663572912,"source":"CELESTRAK","updated_at":"2026-05-25T13:38:19.792395Z"}}